Location: New Canada
(47.1017°N, 68.5042°W)
Time: 08:30:46
(UTC+00:00)

EO-79 - Pass Details

Date: 03 April 2023
Orbit: 578 x 593 km, 98.0° (Epoch: 03 June)

Event Time Altitude Azimuth Distance (km) Brightness Sun altitude
Rises 06:06:01 0° 23° (NNE) 2,827 ? -34.1°
Reaches altitude 10° 06:08:25 10° 34° (NE) 1,918 ? -33.9°
Enters shadow 06:09:57 19° 50° (NE) 1,422 ? -33.8°
